Temperature
16 16 16 16 16 17 17 17 17 17 17 17 17 17 17 17 18 18 18 18 18 18 18 18 18 18 18 18 18 18 18 18 18 18 18 18 18 18 18 18 18 18 18
17 17 16 16 16 17 17 17 17 17 17 17 17 17 17 17 18 18 18 18 18 18 18 18 18 18 18 18 18 18 18 18 18 18 18 18 18 18 18 18 18 18 18
17 17 17 16 16 17 17 17 17 17 17 17 17 17 17 17 17 17 17 17 17 18 18 18 18 18 18 17 17 17 17 18 18 18 18 18 18 18 18 18 18 18 18
17 17 17 17 17 17 17 17 17 17 17 17 17 17 17 17 17 17 17 17 17 17 17 17 17 17 17 17 17 17 17 17 17 17 17 17 17 17 18 18 18 18 18
17 17 17 17 17 17 17 16 17 17 17 17 17 17 17 17 17 17 17 17 17 17 17 17 17 17 17 17 17 17 17 17 17 17 17 17 17 17 17 17 17 17 17
17 17 17 17 17 16 16 16 16 16 17 17 17 17 17 17 17 17 17 17 17 17 17 17 17 17 17 17 17 17 17 17 17 17 17 17 17 17 17 17 17 17 17
17 17 17 16 16 16 16 16 16 16 16 16 17 17 17 17 17 17 17 17 17 17 17 17 17 17 17 17 17 17 17 17 17 17 17 17 17 17 17 17 17 17 17
17 17 17 16 16 16 16 16 16 16 16 16 16 16 16 16 16 17 16 16 16 16 16 16 16 16 17 17 17 17 17 17 17 17 17 17 17 17 17 17 17 17 17
17 17 17 16 16 16 16 16 16 16 16 16 16 16 16 16 16 16 16 16 16 16 16 16 16 16 16 16 16 16 16 16 16 16 16 16 16 16 16 16 16 16 16
17 17 17 16 16 16 16 16 16 16 16 16 16 16 16 16 16 16 16 16 16 16 16 16 16 16 16 16 16 16 16 16 16 16 16 16 16 16 16 16 16 16 16
17 17 17 16 16 16 16 16 16 16 16 16 16 16 16 16 16 16 16 16 16 16 16 16 16 16 16 16 16 16 16 16 16 16 16 16 16 16 16 16 16 16 16
17 17 17 16 16 16 16 16 16 16 16 16 16 16 16 16 16 16 16 16 16 16 16 16 16 16 16 16 16 16 16 16 16 16 16 16 16 16 16 16 16 16 16
17 17 17 16 16 16 16 16 16 16 16 16 16 16 16 16 16 16 16 16 16 16 16 16 16 16 16 16 16 16 16 16 15 15 15 16 16 16 16 16 16 15 15
17 17 16 16 16 16 16 16 16 16 16 16 16 16 16 16 16 16 16 16 16 16 16 16 15 15 16 16 16 15 15 15 15 15 15 15 15 15 15 15 15 15 15
17 17 17 16 16 16 16 16 16 16 16 16 16 16 16 16 16 16 16 16 15 15 15 15 15 15 15 15 15 15 15 15 15 15 15 15 15 15 15 15 15 15 15
17 17 17 16 16 16 16 16 16 16 16 15 15 15 15 15 15 15 15 15 15 15 15 15 15 15 15 15 15 15 15 15 15 15 15 15 15 15 15 15 15 15 15
17 17 17 17 16 16 16 16 16 16 15 15 15 15 15 15 15 15 15 15 15 15 15 15 15 15 15 15 15 15 15 15 15 15 15 15 15 15 15 15 14 14 14
17 17 17 17 16 16 16 16 16 16 15 15 15 15 15 15 15 15 15 15 15 15 15 15 15 15 15 15 15 15 14 15 15 15 15 15 15 15 14 14 14 14 14
17 17 17 17 16 16 16 16 15 15 15 15 15 15 15 15 15 15 15 15 15 15 15 15 14 15 14 14 14 14 14 14 14 14 14 14 14 14 14 14 14 14 14
17 17 17 16 16 16 16 16 15 15 15 15 15 15 15 15 14 15 15 14 15 15 15 14 14 14 14 14 14 14 14 14 14 14 14 14 14 14 14 14 14 14 14
17 17 17 16 16 16 16 16 15 15 15 15 15 15 15 14 14 14 14 14 14 14 14 14 14 14 14 14 14 14 14 14 14 14 14 14 14 14 14 14 14 13 13
17 17 17 16 16 16 16 16 15 15 15 15 15 14 14 14 14 14 14 14 14 14 14 14 14 14 14 14 14 14 13 13 13 13 13 13 13 13 13 13 13 13 13
17 17 17 16 16 16 15 15 15 15 15 15 15 14 14 14 14 14 14 14 14 14 14 14 14 14 14 14 14 14 14 13 13 13 13 13 13 13 13 13 13 13 13
17 17 17 16 16 16 15 15 15 15 15 15 15 14 14 14 14 14 14 14 14 14 14 14 14 14 14 14 14 14 13 13 13 13 13 13 13 13 13 13 13 13 13
17 17 17 16 16 16 15 15 15 15 15 15 14 14 14 14 14 14 14 14 14 14 14 14 14 13 13 13 13 13 13 13 13 13 13 13 13 12 12 12 12 12 13
17 17 17 16 16 16 15 15 15 15 15 15 15 14 14 14 14 14 14 14 14 13 13 13 13 13 13 13 13 13 13 13 13 13 13 13 13 12 12 12 12 12 12
Wind_Speed
3 5 4 3 3 4 5 6 7 7 8 8 8 8 7 7 7 7 7 7 8 8 8 8 8 8 9 10 10 9 9 8 9 8 8 8 7 7 7 7 7 6 8
3 3 2 2 3 3 4 5 6 7 8 8 9 8 8 7 6 6 7 7 8 9 9 9 9 9 9 10 10 9 9 9 9 8 7 7 6 6 7 7 6 5 7
1 2 1 1 2 3 3 4 5 6 7 7 8 8 7 7 6 6 7 7 8 9 9 9 9 10 10 10 10 10 9 9 8 8 7 6 5 6 7 7 7 7 7
1 1 1 1 2 3 4 4 5 5 6 7 7 7 7 7 6 6 7 8 8 9 9 9 10 10 10 10 10 10 9 9 9 8 6 5 5 6 6 6 7 7 7
1 2 2 1 2 3 4 4 5 5 6 6 7 7 7 7 7 7 8 8 8 9 9 9 10 10 10 11 11 10 10 10 9 8 7 6 6 6 7 6 6 7 7
1 2 2 1 2 3 4 4 5 5 5 6 6 6 6 7 7 8 8 9 9 9 9 9 9 10 11 11 11 10 10 9 9 8 7 6 6 7 7 6 6 6 7
1 2 2 1 2 3 3 4 4 5 5 5 5 6 6 7 7 7 8 9 9 9 10 9 9 10 10 10 10 10 9 9 9 7 7 6 6 6 6 6 6 6 7
0 2 3 3 3 3 3 3 4 4 5 5 5 6 6 7 7 7 8 8 8 9 9 9 9 10 10 10 10 10 10 9 8 7 6 6 7 6 6 6 7 7 7
2 2 4 5 5 4 4 4 4 4 5 5 6 7 7 6 7 7 7 7 8 8 8 9 9 10 11 11 11 11 11 11 9 7 6 5 6 7 7 7 8 7 7
2 2 2 4 5 5 5 4 4 4 5 6 7 7 7 7 7 7 7 7 7 7 8 9 9 10 11 12 12 11 10 10 9 8 6 6 7 8 8 8 8 7 7
2 2 2 3 4 4 4 5 5 5 6 7 7 7 8 8 7 6 6 7 7 7 8 9 9 10 11 11 12 11 10 8 8 7 6 7 8 8 8 8 8 8 8
1 2 2 3 3 4 4 5 5 6 6 7 7 7 7 7 6 6 7 8 8 9 9 10 10 10 9 9 10 10 8 8 7 6 6 8 8 8 8 8 8 8 8
0 1 2 2 3 3 3 4 4 5 6 6 6 6 7 7 6 7 7 7 8 8 8 9 10 9 9 8 8 8 8 7 6 6 7 9 9 8 8 8 8 8 8
1 0 1 2 3 3 3 3 4 4 4 4 5 6 6 5 5 5 5 6 6 6 7 7 7 8 9 9 8 8 8 7 7 6 8 9 9 9 9 9 9 9 9
2 1 1 1 2 3 3 3 4 3 3 3 4 4 5 4 3 4 5 6 6 6 6 6 6 7 7 8 8 8 7 7 8 7 7 10 10 10 10 10 9 9 9
2 1 0 2 2 3 3 3 3 3 4 4 4 4 5 5 4 4 4 5 5 6 7 6 6 6 6 6 7 7 7 7 8 8 8 9 10 10 10 10 9 9 8
3 1 1 2 3 3 3 3 4 4 4 4 4 5 5 5 5 5 4 4 4 6 7 7 7 7 6 6 6 6 7 7 8 8 8 8 8 10 10 10 10 9 8
3 2 1 2 3 3 3 3 4 4 4 4 4 5 5 6 6 6 4 3 5 6 6 5 4 5 5 5 5 4 5 6 7 8 8 8 8 8 9 10 10 9 8
4 3 2 2 3 3 3 4 4 5 4 4 4 4 5 5 6 6 5 4 6 6 5 4 4 4 4 4 4 4 4 4 5 7 7 8 8 8 8 8 9 10 9
3 3 3 3 3 3 3 3 3 4 4 4 4 3 4 5 6 6 5 5 5 5 4 4 4 4 3 3 5 5 4 4 5 5 5 7 8 8 8 8 8 8 9
3 3 3 3 3 3 2 2 2 1 1 2 3 4 4 4 5 6 4 4 4 4 4 4 4 4 3 3 4 4 4 4 4 4 5 5 6 7 8 8 8 8 8
5 4 4 4 3 3 2 2 2 1 1 1 2 3 3 3 4 4 4 3 3 3 4 3 3 3 2 2 2 2 2 4 4 4 4 4 5 5 6 7 8 8 7
4 5 5 4 4 3 3 3 3 3 2 2 2 2 2 2 2 3 4 3 3 3 3 2 3 3 2 1 2 2 2 1 1 3 4 4 4 4 4 5 7 7 6
5 4 4 4 3 3 3 4 4 3 1 1 1 0 1 2 2 2 3 3 3 3 2 2 2 2 3 1 1 2 1 2 2 1 3 3 4 4 4 4 5 5 6
5 4 4 3 3 2 3 4 4 3 2 1 0 1 1 1 1 1 3 3 3 2 2 2 2 2 2 2 2 1 2 2 2 2 0 2 3 2 2 3 3 4 5
4 4 4 3 2 2 3 3 4 4 3 2 1 1 0 1 1 0 2 3 3 2 2 2 2 2 2 2 2 2 2 2 2 2 1 1 1 2 2 2 2 3 4
Wind_Direction
290 294 315 13 34 43 57 61 65 65 64 63 65 71 76 80 82 80 86 90 92 91 90 88 89 94 99 101 102 104 103 103 102 101 100 101 103 105 108 108 107 106 112
264 290 312 15 41 43 53 62 65 66 65 64 64 65 72 75 79 80 89 93 95 93 91 89 89 93 99 100 98 98 97 96 96 95 95 92 95 100 105 109 111 113 114
283 306 301 20 42 45 53 71 70 66 66 65 65 64 68 68 69 76 85 91 92 92 90 89 88 87 92 97 93 92 89 89 89 88 84 79 86 97 102 107 108 111 114
315 329 330 36 41 49 57 68 75 69 66 63 62 61 62 60 67 76 82 86 89 91 91 89 88 89 89 92 89 86 85 84 83 79 67 66 83 99 103 107 109 111 111
18 344 330 49 46 60 68 69 71 66 64 64 63 58 56 60 71 75 81 81 86 87 88 89 88 88 88 88 85 82 82 81 77 71 64 65 76 94 100 105 106 107 107
359 338 324 65 60 66 71 66 64 63 65 67 67 62 57 57 65 70 75 77 80 83 83 87 89 89 86 84 83 80 78 76 70 65 62 63 72 88 93 99 105 104 103
321 342 342 55 68 72 69 67 60 58 61 64 63 61 62 61 63 67 72 75 78 79 80 81 87 87 86 82 83 80 77 74 68 64 59 60 72 83 91 98 102 103 97
41 3 4 20 51 56 49 51 57 57 58 56 56 60 67 67 66 66 71 75 79 80 79 78 83 84 84 84 84 79 76 73 66 62 59 61 74 79 84 88 92 96 95
42 28 10 13 19 26 35 39 48 49 55 58 59 62 61 63 68 68 69 70 72 75 79 80 81 82 81 81 81 80 78 71 62 56 60 64 78 81 84 87 86 88 86
30 24 9 13 11 9 12 26 41 45 55 57 56 55 50 49 59 65 66 69 68 70 77 79 81 83 81 80 79 77 73 64 58 55 52 69 76 77 80 83 86 89 89
19 9 13 15 6 3 10 30 36 40 45 52 52 52 49 44 46 55 66 66 66 72 80 80 80 85 82 78 77 75 68 58 55 51 52 70 72 73 77 79 81 84 87
348 354 18 22 15 20 30 38 37 43 48 51 51 53 56 53 52 58 62 64 66 71 78 77 76 77 75 72 72 70 62 56 53 48 54 65 70 72 76 78 78 82 87
248 8 26 34 35 36 35 45 43 51 53 50 51 57 63 61 60 59 57 53 56 65 71 70 68 68 71 72 70 65 60 58 52 47 53 60 62 66 72 73 72 76 81
112 338 11 56 56 42 49 56 56 55 54 50 48 57 66 65 60 62 62 59 62 73 79 75 75 70 70 71 72 68 62 59 50 45 48 53 57 62 67 72 72 74 78
158 232 9 57 64 49 55 58 65 58 59 60 58 59 73 78 68 67 66 65 64 76 85 85 82 76 70 66 65 66 61 56 52 46 40 48 53 58 64 67 70 74 75
195 207 133 94 81 71 68 67 66 60 62 64 61 67 78 90 90 82 69 66 64 72 83 89 89 83 73 68 61 60 57 55 53 48 41 40 45 51 57 60 63 68 71
199 188 172 152 95 83 72 64 69 62 65 62 60 68 78 89 94 94 82 70 73 82 85 86 83 80 77 69 57 52 53 53 53 48 44 40 37 41 48 53 54 57 64
180 164 171 137 108 92 82 70 66 63 66 64 65 70 76 84 93 98 90 83 88 89 88 83 76 76 69 66 59 46 48 52 52 50 47 42 39 36 38 45 46 48 53
180 162 144 118 118 108 93 82 71 62 57 61 69 73 78 84 92 100 96 96 96 92 84 86 78 86 83 71 64 50 42 44 42 49 45 41 41 40 37 34 37 40 45
169 156 142 128 117 109 89 77 62 54 41 50 59 66 81 88 93 98 96 94 97 89 80 84 87 78 85 81 73 55 39 39 42 39 36 40 39 39 41 39 36 32 36
158 157 148 141 139 123 101 96 86 61 24 35 47 62 78 92 99 100 98 95 95 94 101 102 100 87 76 79 79 51 30 36 42 34 33 37 34 36 43 42 42 40 33
174 174 163 163 162 151 144 136 123 124 86 62 39 53 66 93 104 112 111 105 101 101 97 99 103 101 74 50 92 84 32 10 19 27 27 35 27 31 37 41 44 39 34
179 186 184 182 176 164 144 115 87 61 42 36 28 25 28 86 106 116 127 122 117 117 126 124 116 116 116 45 65 123 126 194 338 357 20 28 23 25 24 35 41 39 35
189 184 179 177 176 168 151 143 141 143 159 219 232 274 16 59 100 122 139 134 131 126 135 146 119 120 128 122 54 56 111 147 142 358 349 6 18 25 14 25 33 34 35
180 175 173 167 174 170 160 161 154 160 180 181 145 85 29 25 69 132 149 142 140 140 149 141 123 122 129 140 139 121 90 67 91 140 281 335 355 1 8 15 23 23 28
170 172 168 165 176 166 164 166 168 173 174 165 177 174 263 327 341 128 149 147 152 153 164 165 152 146 144 137 141 144 148 146 159 143 168 278 310 321 351 8 14 13 22
Height
1533 1531 1530 1529 1529 1528 1528 1527 1527 1526 1526 1526 1525 1525 1524 1524 1523 1523 1523 1523 1523 1523 1523 1524 1524 1524 1525 1525 1526 1527 1528 1529 1530 1530 1531 1532 1532 1533 1533 1534 1534 1535 1535
1533 1532 1531 1530 1530 1529 1528 1528 1528 1528 1527 1527 1526 1526 1525 1524 1524 1523 1523 1523 1523 1524 1524 1524 1525 1525 1526 1527 1527 1528 1529 1530 1531 1531 1532 1533 1533 1534 1534 1535 1535 1536 1536
1534 1533 1532 1531 1531 1530 1529 1529 1529 1528 1528 1527 1527 1526 1526 1525 1524 1524 1524 1524 1524 1525 1525 1526 1526 1527 1527 1528 1529 1529 1530 1531 1532 1532 1533 1533 1534 1534 1535 1535 1536 1536 1537
1534 1533 1533 1532 1532 1531 1530 1530 1529 1529 1529 1528 1528 1527 1527 1525 1525 1524 1525 1525 1525 1526 1526 1527 1527 1528 1529 1529 1530 1531 1531 1532 1533 1533 1534 1534 1534 1535 1535 1536 1536 1537 1537
1535 1534 1534 1533 1533 1532 1531 1531 1530 1530 1530 1530 1529 1528 1527 1527 1526 1526 1526 1526 1526 1527 1527 1528 1529 1530 1530 1530 1531 1532 1532 1533 1533 1534 1534 1535 1535 1535 1536 1536 1537 1537 1538
1536 1535 1535 1534 1534 1533 1533 1532 1532 1531 1531 1531 1530 1530 1529 1528 1528 1528 1527 1527 1528 1528 1529 1529 1530 1531 1531 1532 1532 1533 1533 1534 1534 1534 1535 1535 1535 1536 1536 1537 1537 1537 1538
1537 1537 1536 1535 1535 1534 1534 1534 1533 1533 1532 1532 1532 1531 1531 1530 1529 1529 1529 1529 1530 1530 1530 1531 1531 1532 1532 1533 1533 1534 1534 1534 1535 1535 1535 1536 1536 1536 1537 1537 1537 1538 1538
1538 1538 1537 1537 1536 1536 1535 1535 1535 1534 1534 1533 1533 1533 1532 1532 1532 1531 1531 1531 1532 1532 1532 1532 1533 1533 1534 1534 1535 1535 1535 1535 1536 1536 1536 1537 1537 1537 1537 1538 1538 1538 1539
1539 1539 1538 1538 1538 1537 1537 1536 1536 1535 1535 1535 1534 1534 1534 1534 1533 1533 1533 1533 1533 1534 1534 1534 1534 1535 1535 1536 1536 1536 1536 1536 1536 1537 1537 1537 1538 1538 1538 1538 1538 1539 1539
1540 1540 1540 1539 1539 1538 1538 1538 1537 1537 1536 1536 1536 1536 1535 1535 1535 1535 1535 1535 1535 1535 1535 1536 1536 1536 1537 1537 1537 1537 1537 1537 1538 1538 1538 1538 1538 1538 1539 1539 1539 1539 1540
1541 1541 1541 1541 1540 1540 1539 1539 1539 1538 1538 1537 1537 1537 1537 1537 1536 1536 1536 1536 1536 1537 1537 1537 1538 1538 1538 1538 1538 1539 1539 1539 1539 1539 1539 1539 1539 1539 1539 1539 1540 1540 1540
1542 1542 1542 1542 1541 1541 1540 1540 1540 1539 1539 1539 1539 1538 1538 1538 1538 1538 1538 1538 1538 1538 1538 1538 1539 1539 1539 1539 1540 1540 1540 1540 1540 1540 1540 1540 1541 1540 1540 1540 1540 1540 1540
1543 1543 1543 1543 1542 1542 1542 1541 1541 1541 1540 1540 1540 1540 1539 1539 1539 1539 1539 1539 1539 1539 1539 1539 1540 1540 1540 1541 1541 1541 1541 1541 1541 1541 1542 1542 1541 1541 1541 1541 1541 1541 1541
1544 1544 1544 1544 1544 1543 1543 1542 1542 1541 1541 1541 1541 1541 1540 1540 1540 1540 1540 1539 1539 1539 1540 1540 1541 1541 1542 1542 1542 1542 1543 1543 1543 1543 1543 1543 1543 1542 1542 1542 1542 1541 1541
1545 1545 1545 1545 1544 1544 1544 1543 1543 1542 1542 1542 1542 1542 1542 1541 1541 1541 1541 1540 1540 1540 1541 1541 1542 1542 1542 1543 1543 1543 1544 1544 1544 1544 1544 1544 1543 1543 1543 1542 1542 1542 1542
1545 1546 1546 1546 1545 1545 1545 1544 1544 1544 1543 1543 1543 1543 1542 1542 1542 1542 1542 1542 1541 1541 1541 1542 1542 1543 1543 1544 1544 1544 1545 1545 1545 1545 1545 1544 1544 1544 1544 1543 1543 1543 1542
1546 1546 1546 1546 1546 1546 1545 1545 1545 1545 1545 1544 1544 1544 1543 1543 1543 1543 1543 1543 1543 1543 1543 1542 1543 1544 1544 1545 1545 1545 1546 1546 1546 1546 1545 1545 1545 1545 1544 1544 1544 1543 1543
1546 1546 1546 1546 1546 1546 1546 1546 1546 1546 1545 1545 1545 1545 1545 1544 1544 1544 1544 1544 1544 1544 1544 1544 1544 1545 1546 1546 1546 1546 1547 1547 1547 1547 1546 1546 1546 1545 1545 1545 1544 1544 1543
1546 1546 1546 1546 1546 1546 1546 1546 1546 1546 1546 1546 1546 1546 1545 1545 1545 1545 1545 1545 1545 1546 1546 1546 1546 1546 1546 1547 1547 1547 1547 1547 1547 1547 1547 1547 1547 1546 1546 1545 1545 1544 1544
1545 1546 1546 1546 1546 1546 1547 1547 1547 1547 1547 1547 1547 1546 1546 1546 1546 1546 1546 1546 1546 1547 1547 1547 1547 1547 1547 1547 1547 1548 1548 1548 1548 1548 1548 1548 1547 1547 1547 1546 1545 1545 1544
1544 1545 1546 1546 1546 1546 1547 1547 1547 1547 1547 1547 1547 1547 1547 1547 1547 1547 1547 1547 1547 1547 1547 1547 1548 1548 1548 1548 1548 1548 1549 1549 1549 1549 1549 1548 1548 1548 1547 1546 1546 1545 1544
1543 1544 1545 1546 1546 1546 1546 1547 1547 1547 1547 1547 1547 1547 1547 1547 1547 1547 1547 1547 1547 1548 1548 1548 1548 1548 1548 1549 1549 1548 1549 1551 1549 1549 1549 1549 1548 1548 1547 1546 1545 1545 1544
1542 1543 1544 1545 1545 1546 1546 1547 1547 1547 1547 1547 1547 1547 1548 1548 1548 1548 1548 1548 1548 1548 1548 1548 1548 1548 1548 1549 1549 1550 1549 1549 1550 1550 1549 1549 1549 1548 1547 1546 1545 1545 1544
1541 1543 1544 1544 1545 1545 1546 1546 1546 1546 1547 1547 1547 1547 1547 1547 1548 1548 1548 1548 1548 1548 1548 1548 1548 1548 1549 1549 1549 1549 1550 1550 1550 1550 1550 1549 1549 1548 1547 1546 1546 1545 1544
1540 1542 1543 1543 1544 1545 1545 1546 1546 1546 1546 1547 1547 1547 1547 1547 1547 1547 1547 1547 1548 1548 1548 1548 1548 1548 1548 1548 1549 1549 1549 1549 1549 1549 1549 1549 1549 1548 1547 1547 1546 1545 1544
1539 1540 1542 1542 1543 1544 1544 1545 1545 1545 1546 1546 1546 1546 1546 1546 1546 1547 1547 1547 1547 1547 1547 1548 1548 1548 1548 1548 1548 1548 1549 1549 1549 1548 1548 1548 1548 1548 1547 1547 1546 1545 1544